Hourly Data Report for July 11, 2003

TORONTO CITY
ONTARIO

43°40'00.000" N
79°24'00.000" W
112.50 m
6158355
71508
XTO

Download Data

Hourly Data (July 2003)
Hourly Data Report for July 11, 2003
TIME
LST
Temp Definition
°C
Dew Point Definition
°C
Rel Hum Definition
%
Precip. Amount Definition
mm

Wind Dir Definition
10's deg

Wind Spd Definition
km/h
Visibility Definition
km
Stn Press Definition
kPa
Hmdx Definition


Wind Chill Definition


Weather Definition


00:00 18.7 18.4 98   LegendMM LegendMM LegendMM 98.95     LegendNANA
01:00 18.8 18.4 98   LegendMM LegendMM LegendMM 98.91     LegendNANA
02:00 18.7 18.3 98   LegendMM LegendMM LegendMM 98.87     LegendNANA
03:00 18.6 18.3 98   LegendMM LegendMM LegendMM 98.77     LegendNANA
04:00 18.0 17.7 98   LegendMM LegendMM LegendMM 98.75     LegendNANA
05:00 18.0 17.8 99   LegendMM LegendMM LegendMM 98.70     LegendNANA
06:00 18.6 18.4 99   LegendMM LegendMM LegendMM 98.64     LegendNANA
07:00 20.1 19.9 99   LegendMM LegendMM LegendMM 98.58 28   LegendNANA
08:00 20.2 20.0 99   LegendMM LegendMM LegendMM 98.57 28   LegendNANA
09:00 21.1 20.6 97   LegendMM LegendMM LegendMM 98.54 29   LegendNANA
10:00 22.0 18.2 79   LegendMM LegendMM LegendMM 98.57 28   LegendNANA
11:00 19.7 18.3 92   LegendMM LegendMM LegendMM 98.62     LegendNANA
12:00 21.2 18.4 84   LegendMM LegendMM LegendMM 98.63 28   LegendNANA
13:00 22.6 16.4 68   LegendMM LegendMM LegendMM 98.66 27   LegendNANA
14:00 20.7 18.3 86   LegendMM LegendMM LegendMM 98.73 27   LegendNANA
15:00 21.6 15.9 70   LegendMM LegendMM LegendMM 98.76 26   LegendNANA
16:00 20.9 14.6 67   LegendMM LegendMM LegendMM 98.83 25   LegendNANA
17:00 20.3 14.2 68   LegendMM LegendMM LegendMM 98.89     LegendNANA
18:00 18.4 14.7 79   LegendMM LegendMM LegendMM 98.93     LegendNANA
19:00 18.3 14.0 76   LegendMM LegendMM LegendMM 99.00     LegendNANA
20:00 18.0 14.9 82   LegendMM LegendMM LegendMM 99.01     LegendNANA
21:00 16.5 14.9 90   LegendMM LegendMM LegendMM 99.04     LegendNANA
22:00 17.7 14.0 79   LegendMM LegendMM LegendMM 99.06     LegendNANA
23:00 17.1 13.8 81   LegendMM LegendMM LegendMM 99.07     LegendNANA

Notes on Data Quality.

Legend

  • E = Estimated
  • M = Missing
  • NA = Not Available*
  • [empty] = Indicates an unobserved value
Date modified: